This demonstration page uses our WeatherBlox Daily Observations layout. Learn more.

39.29038, -76.61219

Hourly Observations for May 30, 2019

Temp ( °F °C ) Dew Point ( °F °C ) Humidity (%) Winds ( mph kmh ) Pressure ( in mb ) Visibility ( mi km ) Precip ( " mm )
12:54 am 00:54 undefined 77 25 66 18.9 69 69 undefined N/A 29.74 1007 N/A 0 0
1:54 am 01:54 undefined 77 25 65 18.3 66 66 undefined N/A 29.74 1007 N/A 0 0
2:54 am 02:54 undefined 77 25 65 18.3 66 66 undefined N/A 29.74 1007 N/A 0 0
3:54 am 03:54 undefined 76 24.4 65 18.3 69 69 undefined N/A 29.77 1008 N/A 0 0
4:54 am 04:54 undefined 75 23.9 65 18.3 71 71 undefined N/A 29.74 1007 N/A 0 0
5:54 am 05:54 undefined 74 23.3 65 18.3 74 74 undefined N/A 29.77 1008 N/A 0 0
6:54 am 06:54 undefined 75 23.9 65 18.3 71 71 undefined N/A 29.8 1009 N/A 0 0
7:54 am 07:54 undefined 78 25.6 64 17.8 62 62 undefined N/A 29.8 1009 N/A 0 0
8:54 am 08:54 undefined 81 27.2 65 18.3 58 58 undefined N/A 29.77 1008 N/A 0 0
9:54 am 09:54 undefined 82 27.8 65 18.3 56 56 undefined N/A 29.77 1008 N/A 0 0
10:54 am 10:54 undefined 86 30 65 18.3 49 49 undefined N/A 29.77 1008 N/A 0 0
11:54 am 11:54 undefined 86 30 66 18.9 51 51 undefined N/A 29.77 1008 N/A 0 0
12:54 pm 12:54 undefined 86 30 66 18.9 51 51 undefined N/A 29.74 1007 N/A 0 0
1:54 pm 13:54 undefined 89 31.7 66 18.9 47 47 undefined N/A 29.71 1006 N/A 0 0
2:54 pm 14:54 undefined 84 28.9 67 19.4 57 57 undefined N/A 29.68 1005 N/A 0 0
3:54 pm 15:54 undefined 75 23.9 71 21.7 88 88 undefined N/A 29.77 1008 N/A 0.22 5.588
4:54 pm 16:54 undefined 74 23.3 69 20.6 85 85 undefined N/A 29.68 1005 N/A 0.45 11.43
5:54 pm 17:54 undefined 76 24.4 70 21.1 82 82 undefined N/A 29.74 1007 N/A 0 0
6:54 pm 18:54 undefined 76 24.4 70 21.1 82 82 undefined N/A 29.71 1006 N/A 0 0
7:54 pm 19:54 undefined 76 24.4 70 21.1 82 82 undefined N/A 29.71 1006 N/A 0 0
8:54 pm 20:54 undefined 74 23.3 65 18.3 74 74 undefined N/A 29.71 1006 N/A 0.03 0.762
9:54 pm 21:54 undefined 74 23.3 65 18.3 74 74 undefined N/A 29.74 1007 N/A 0 0
10:54 pm 22:54 undefined 73 22.8 64 17.8 74 74 undefined N/A 29.74 1007 N/A 0 0
11:54 pm 23:54 undefined 73 22.8 62 16.7 69 69 undefined N/A 29.74 1007 N/A 0 0

Powered by AerisWeather